Regional Weather Roundup
Issued by NWS Upton, NY

Current Version | Previous Version | Graphics & Text | Print | Product List | Glossary Off
Versions: 1 2 3 4 5 6 7 8 9 10 11 12 13 14 15 16 17 18 19 20 21 22 23 24 25 26 27 28 29 30 31 32 33 34 35 36 37 38 39 40 41 42 43 44 45 46 47 48 49

000
ASUS41 KOKX 150305
RWROKX
REGIONAL WEATHER ROUNDUP
NATIONAL WEATHER SERVICE NEW YORK NY
1100 PM EDT SUN SEP 14 2014

NOTE: "FAIR" INDICATES FEW OR NO CLOUDS BELOW 12,000 FEET WITH NO
SIGNIFICANT WEATHER AND/OR OBSTRUCTIONS TO VISIBILITY.

NYZ071-072-176-178-NJZ106-104-150400-
NEW YORK CITY METRO AREA


CITY           SKY/WX    TMP DP  RH WIND       PRES   REMARKS
CENTRAL PARK   CLEAR     62  47  57 CALM      30.22S
LAGUARDIA APRT PTCLDY    64  49  57 SE5       30.19S
KENNEDY INTL   PTCLDY    63  50  62 SW7       30.20S
NEWARK/LIBERTY PTCLDY    61  49  64 W6        30.19S
BRNX BOT. GARD   N/A     57  45  62 NE2       30.22R
TETERBORO      PTCLDY    60  46  59 N3        30.18S
$$

NYZ177-179-078>081-150400-
LONG ISLAND NEW YORK

CITY           SKY/WX    TMP DP  RH WIND       PRES   REMARKS
FARMINGDALE    CLEAR     57  50  77 N5        30.20S
ISLIP          PTCLDY    55  49  80 CALM      30.19R
SHIRLEY        PTCLDY    52  48  86 CALM      30.20S
WESTHAMPTON      N/A    N/A N/A N/A MISG      30.21R
MONTAUK POINT    N/A     54  49  83 CALM      30.20F
$$

NYZ052-065-067-150400-
HUDSON VALLEY

CITY           SKY/WX    TMP DP  RH WIND       PRES   REMARKS
WHITE PLAINS   CLEAR     52  47  83 NW3       30.20R
NEWBURGH       CLEAR     52  48  87 CALM      30.23S
MONTGOMERY     CLEAR     48  45  89 CALM      30.22R
POUGHKEEPSIE   CLEAR     48  46  93 CALM      30.22R
ALBANY         PTCLDY    47  43  86 CALM      30.24R
$$

NJZ001-105-106-008-010-013-015-019>022-104-150400-
NEW JERSEY

CITY           SKY/WX    TMP DP  RH WIND       PRES   REMARKS
NEWARK/LIBERTY PTCLDY    61  49  64 W6        30.19S
TETERBORO      PTCLDY    60  46  59 N3        30.18S
CALDWELL       CLEAR     53  47  79 CALM      30.21R
MORRISTOWN     CLEAR     50  46  87 CALM      30.21S
SOMERVILLE     CLEAR     50  48  93 CALM      30.19S
LINDEN         FAIR      63  52  68 CALM      30.22S
SUSSEX         CLEAR     49  46  90 CALM      30.22S
ANDOVER          N/A     50  49  96 CALM      30.22S
TRENTON        CLEAR     53  49  86 CALM      30.20S
MILLVILLE      CLEAR     51  49  92 CALM      30.21F
ATLANTIC CITY  CLEAR     55  51  86 CALM      30.21F
WRIGHTSTOWN    CLEAR     54  51  88 S5        30.19S
TOMS RIVER     CLEAR     52  50  93 CALM      30.21S
BELMAR         CLEAR     57  48  72 SW5       30.20S
$$

PAZ047>061-062-071-150400-
EASTERN PENNSYLVANIA

CITY           SKY/WX    TMP DP  RH WIND       PRES   REMARKS
PHILADELPHIA   CLEAR     59  48  67 W7        30.21F
ALLENTOWN      CLEAR     54  48  80 SW3       30.21S
SCRANTON       CLEAR     48  43  82 E7        30.23R
$$

CTZ002-004>006-009-010-012-RIZ004-006-007-MAZ004-011-015-150400-
SOUTHERN NEW ENGLAND
 IN CT

CITY           SKY/WX    TMP DP  RH WIND       PRES   REMARKS
BRADLEY INTL   CLOUDY    51  45  79 N6        30.21R
HARTFORD       CLEAR     56  47  71 VRB6      30.21R
DANBURY        CLEAR     47  45  93 SW3       30.23R
WTRBRY/OXFORD  CLEAR     48  41  76 NE6       30.22S
BRIDGEPORT     CLEAR     56  45  66 N6        30.20S
MERIDEN        CLEAR     50  47  89 CALM      30.21S
NEW HAVEN      CLEAR     55  47  74 N5        30.20S
CHESTER        FAIR      54  52  94 CALM      30.20S
GROTON         PTCLDY    52  51  97 N3        30.19S
WILLIMANTIC    PTCLDY    49  47  93 N3        30.21S

 IN RI

CITY           SKY/WX    TMP DP  RH WIND       PRES   REMARKS
PROVIDENCE     MOCLDY    54  49  83 N6        30.20F
BLOCK ISLAND   MOCLDY    57  48  72 NW5       30.19S
WESTERLY       PTCLDY    52  50  93 CALM      30.20S

 IN MA

CITY           SKY/WX    TMP DP  RH WIND       PRES   REMARKS
BOSTON         PTCLDY    57  44  62 N7        30.21S
WORCESTER      PTCLDY    50  43  77 N6        30.22R
WESTFIELD      CLEAR     49  45  86 CALM      30.22S
PROVINCETOWN   MOCLDY    48  43  81 CALM      30.21S
NANTUCKET      MOCLDY    51  47  86 CALM      30.20F
$$

ANZ330-335-338-340-345-350-353-355-150400-
COASTAL MARINE OBSERVATIONS


STATION/POSITION TIME  SKY/WX   TEMP    WIND        PRES    VSBY  WAVE
                                AIR SEA DIR/SP/G                  HT/PER
                 (UTC)          (F)     (DEG/KT/KT) (MB)    (MI)  (FT/S)
NY HARB ENTRANCE NOT AVBL
4S FIRE IS       NOT AVBL
23SW MTP         0300                                 N/A           1/ 6
HUDSON CANYON    0300            62 73  280/  2/  4 1022.6          2/ 5
EXECUTION ROCKS  0300            64 72   70/  4/  8   N/A
WESTERN LI SOUND 0300            63      20/  8/ 10   N/A           0
CENTRAL LI SOUND 0200            64 71  340/  8/ 10   N/A           1/ 2
EASTERN LI SOUND 0200            62 68   20/  8/ 10   N/A
ROBBINS REEF     0300            63     250/ 11/ 12 1021.2
$$


>>>>>>>>>>>>>>>>>>>>>>>>>>>> KEY <<<<<<<<<<<<<<<<<<<<<<<<<<<
>                                                          <
>     SKY/WX - SKY CONDITION/PRESENT WEATHER               <
>     TMP    - TEMPERATURE IN FAHRENHEIT                   <
>     DP     - DEWPOINT IN FAHRENHEIT                      <
>     RH     - RELATIVE HUMIDITY IN PERCENT                <
>     WIND   - DIRECTION AND SPEED IN MPH                  <
>     PRES   - MEAN SEA LEVEL PRESSURE IN INCHES OF HG     <
>     WCI    - WIND CHILL INDEX                            <
>     VSB    - VISIBILITY IN MILES                         <
>     HX     - HEAT INDEX                                  <
>     TC     - TEMPERATURE IN CELSIUS                      <
>     VRB    - VARIABLE WIND DIRECTION                     <
>                                                          <
>>>>>>>>>>>>>>>>>>>>>>>>>>>> KEY <<<<<<<<<<<<<<<<<<<<<<<<<<<





USA.gov is the U.S. government's official web portal to all federal, state and local government web resources and services.